Home   Weather   Medellin   Past weeks

Flag for Colombia Past Weather in Medellin, Colombia — Yesterday and Last 2 Weeks

Now
64 °F

Scattered clouds.


Feels Like: 64 °F
Forecast: 59 / 74 °F
Wind: 14 mph from Northwest

Location: Bogota / Eldorado

Current Time: Jan 20, 2017 at 3:32:28 pm

Latest Report: Jan 20, 2017 at 2:00 pm


Visibility: N/A

Pressure: 30.26 "Hg (25.44 "Hg at 1479m altitude)

Humidity: 64%

Dew Point: 52 °F

Location of MedellinLocation

Past Weather in Medellin — Graph

°F

Medellin Temperature Yesterday

Maximum temperature yesterday: 66 °F (at 12:00 pm)
Minimum temperature yesterday: 48 °F (at 5:30 am)
Average temperature yesterday: 57 °F

High & Low Weather Summary for the Past Weeks

 TemperatureHumidityPressure
High68 °F (Jan 7, 3:00 pm)100% (Jan 9, 5:30 am)30.41 "Hg (Jan 9, 5:30 am)
Low48 °F (Jan 6, 11:00 pm)46% (Jan 7, 3:00 pm)30.19 "Hg (Jan 11, 4:00 pm)
Average57 °F80%30.29 "Hg
* Reported Jan 5 2:00 pm — Jan 20 2:00 pm, Medellin, Weather by CustomWeather, © 2017

Note: Actual official high and low records may vary slightly from our data, if they occured in-between our weather recording intervals... More about our weather records

Advertising

Medellin Weather History for the Previous 24 Hours

Scroll right to see more
 ConditionsComfort  
Time TempWeatherWind HumidityBarometerVisibility
2:00 pm
Fri, Jan 20
64 °FScattered clouds.14 mph64%30.26 "HgN/A
1:00 pm66 °FPartly sunny.10 mph56%30.29 "HgN/A
12:00 pm68 °FScattered clouds.7 mph53%30.31 "HgN/A
11:00 am64 °FScattered clouds.5 mph56%30.34 "HgN/A
10:00 am63 °FScattered clouds.5 mph64%30.37 "HgN/A
9:00 am59 °FBroken clouds.3 mph72%30.37 "Hg6 mi
8:30 am57 °FBroken clouds.3 mph77%30.37 "Hg5 mi
8:00 am54 °FFog.3 mph94%30.35 "Hg4 mi
7:26 am50 °FFog.2 mph94%30.33 "Hg4 mi
7:00 am50 °FFog.3 mph94%30.32 "Hg5 mi
6:00 am48 °FFog.2 mph94%30.30 "Hg5 mi
5:30 am50 °FFog.5 mph94%30.29 "Hg5 mi
5:00 am50 °FFog.6 mph94%30.28 "Hg5 mi
4:00 am50 °FFog.2 mph94%30.28 "HgN/A
3:00 am50 °FFog.5 mph94%30.29 "HgN/A
2:00 am52 °FPassing clouds.3 mph94%30.30 "HgN/A
1:00 am52 °FPassing clouds.5 mph94%30.32 "HgN/A
12:00 am52 °FPassing clouds.2 mph94%30.33 "HgN/A
11:00 pm
Thu, Jan 19
52 °FPassing clouds.5 mph94%30.33 "HgN/A
10:00 pm54 °FPassing clouds.3 mph88%30.34 "HgN/A
9:00 pm57 °FPassing clouds.3 mph82%30.33 "HgN/A
8:00 pm55 °FScattered showers. Passing clouds.5 mph88%30.31 "HgN/A
7:00 pm57 °FScattered showers. Passing clouds.7 mph82%30.28 "HgN/A
6:00 pm59 °FScattered showers. Scattered clouds.9 mph77%30.26 "HgN/A
5:00 pm63 °FScattered showers. Passing clouds.9 mph68%30.24 "HgN/A
4:00 pm64 °FScattered showers. Partly sunny.9 mph64%30.23 "HgN/A
3:00 pm64 °FScattered showers. Scattered clouds.12 mph64%30.23 "HgN/A
Weather by CustomWeather, © 2017

See weather overviewHow to use our weather pages